When you browse on this site, cookies collect data to enhance your experience and personalize the content and advertising you see.
Visit our Privacy Policy to learn more. By continuing to use the site, you agree to this use of cookies and data.
  • In Romania
  • List of Countries
  • For 7 days
  • Water Temperature
  • Satellite Maps
  • Weather Map
  • Weather Widgets
  • user-avatar
    Login

    Hourly Weather Kalinka

    Today, 25 March, Monday

    Time Temperature Precipitation Wind Pressure Humidity
    00:00 -2°C° 0.8 mm 7 mps 743 mmHg 96%
    01:00 -2°C° 1.2 mm 6 mps 742 mmHg 97%
    02:00 -2°C° 1.2 mm 6 mps 740 mmHg 97%
    03:00 -1°C° 1.2 mm 5 mps 739 mmHg 98%
    04:00 -1°C° 0.1 mm 5 mps 739 mmHg 96%
    05:00 -1°C° 0.1 mm 5 mps 738 mmHg 93%
    06:00 -3°C° 0.1 mm 6 mps 737 mmHg 91%
    07:00 -3°C° 0.1 mm 6 mps 737 mmHg 91%
    08:00 -3°C° 0.1 mm 7 mps 738 mmHg 92%
    09:00 -3°C° 0.1 mm 7 mps 738 mmHg 92%
    10:00 -2°C° 0.3 mm 8 mps 738 mmHg 91%
    11:00 -2°C° 0.3 mm 8 mps 738 mmHg 90%
    12:00 -3°C° 0.3 mm 9 mps 739 mmHg 89%
    13:00 -3°C° 0.2 mm 9 mps 740 mmHg 88%
    14:00 -2°C° 0.2 mm 8 mps 740 mmHg 87%
    15:00 -2°C° 0.2 mm 8 mps 741 mmHg 86%
    16:00 -2°C° 0.1 mm 7 mps 742 mmHg 87%
    17:00 -2°C° 0.1 mm 7 mps 742 mmHg 88%
    18:00 -2°C° 0.1 mm 6 mps 743 mmHg 89%
    19:00 -3°C° 0.1 mm 6 mps 744 mmHg 88%
    20:00 -3°C° 0.1 mm 6 mps 745 mmHg 87%
    21:00 -3°C° 0.1 mm 6 mps 745 mmHg 86%
    22:00 -4°C° 0 mm 6 mps 746 mmHg 87%
    23:00 -4°C° 0 mm 6 mps 746 mmHg 88%

    Tomorrow, 26 March, Tuesday

    Time Temperature Precipitation Wind Pressure Humidity
    00:00 -4°C° 0 mm 6 mps 747 mmHg 89%
    01:00 -5°C° 0 mm 5 mps 748 mmHg 89%
    02:00 -5°C° 0 mm 5 mps 748 mmHg 90%
    03:00 -5°C° 0 mm 4 mps 749 mmHg 90%
    04:00 -5°C° 0 mm 4 mps 750 mmHg 90%
    05:00 -7°C° 0 mm 4 mps 750 mmHg 91%
    06:00 -7°C° 0 mm 4 mps 751 mmHg 91%
    07:00 -5°C° 0 mm 4 mps 751 mmHg 90%
    08:00 -4°C° 0 mm 4 mps 751 mmHg 89%
    09:00 -3°C° 0 mm 4 mps 752 mmHg 88%
    10:00 -3°C° 0 mm 4 mps 752 mmHg 88%
    11:00 -2°C° 0 mm 4 mps 752 mmHg 89%
    12:00 -2°C° 0 mm 4 mps 753 mmHg 89%
    13:00 -2°C° 0 mm 4 mps 752 mmHg 88%
    14:00 -1°C° 0 mm 4 mps 752 mmHg 87%
    15:00 -1°C° 0 mm 4 mps 752 mmHg 86%
    16:00 -2°C° 0 mm 4 mps 752 mmHg 87%
    17:00 -2°C° 0 mm 4 mps 752 mmHg 87%
    18:00 -3°C° 0 mm 4 mps 751 mmHg 88%
    19:00 -2°C° 0.1 mm 5 mps 751 mmHg 86%
    20:00 -3°C° 0.1 mm 6 mps 751 mmHg 85%
    21:00 -2°C° 0.1 mm 7 mps 750 mmHg 83%
    22:00 -2°C° 0.5 mm 7 mps 750 mmHg 84%
    23:00 -1°C° 0.5 mm 8 mps 749 mmHg 84%

    Day after tomorrow, 27 March, Wednesday

    Time Temperature Precipitation Wind Pressure Humidity
    00:00 -1°C° 0.5 mm 8 mps 749 mmHg 85%
    01:00 -1°C° 0.6 mm 8 mps 749 mmHg 84%
    02:00 0°C° 0.6 mm 8 mps 749 mmHg 83%
    03:00 0°C° 0.6 mm 9 mps 749 mmHg 83%
    04:00 -1°C° 0.6 mm 8 mps 748 mmHg 84%
    05:00 -1°C° 0.6 mm 8 mps 748 mmHg 85%
    06:00 -1°C° 0.6 mm 8 mps 748 mmHg 86%
    07:00 -1°C° 0.8 mm 8 mps 748 mmHg 86%
    08:00 -1°C° 0.8 mm 8 mps 749 mmHg 86%
    09:00 -1°C° 0.8 mm 8 mps 749 mmHg 86%
    10:00 -1°C° 0.7 mm 7 mps 749 mmHg 88%
    11:00 -2°C° 0.7 mm 7 mps 749 mmHg 90%
    12:00 -2°C° 0.7 mm 7 mps 749 mmHg 92%
    13:00 -2°C° 0.6 mm 6 mps 750 mmHg 94%
    14:00 -1°C° 0.6 mm 5 mps 750 mmHg 96%
    15:00 -1°C° 0.6 mm 5 mps 750 mmHg 98%
    16:00 -1°C° 0.1 mm 4 mps 750 mmHg 98%
    17:00 0°C° 0.1 mm 3 mps 751 mmHg 98%
    18:00 +1°C° 0.1 mm 2 mps 751 mmHg 98%
    19:00 +1°C° 0 mm 2 mps 751 mmHg 97%
    20:00 -1°C° 0 mm 2 mps 751 mmHg 97%
    21:00 -1°C° 0 mm 2 mps 752 mmHg 96%
    22:00 +1°C° 0 mm 1 mps 752 mmHg 96%
    23:00 0°C° 0 mm 1 mps 752 mmHg 95%

    28 March, Thursday

    Time Temperature Precipitation Wind Pressure Humidity
    00:00 0°C° 0 mm 1 mps 751 mmHg 95%
    01:00 -1°C° 0 mm 1 mps 751 mmHg 94%
    02:00 -1°C° 0 mm 1 mps 751 mmHg 94%
    03:00 -2°C° 0 mm 1 mps 751 mmHg 94%
    04:00 -2°C° 0 mm 1 mps 751 mmHg 93%
    05:00 -2°C° 0 mm 1 mps 751 mmHg 91%
    06:00 -2°C° 0 mm 1 mps 751 mmHg 90%
    07:00 -1°C° 0 mm 1 mps 751 mmHg 88%
    08:00 -2°C° 0 mm 2 mps 751 mmHg 87%
    09:00 -1°C° 0 mm 2 mps 751 mmHg 85%
    10:00 -1°C° 0 mm 2 mps 751 mmHg 83%
    11:00 +1°C° 0 mm 2 mps 751 mmHg 81%
    12:00 +1°C° 0 mm 2 mps 751 mmHg 79%
    13:00 +1°C° 0 mm 2 mps 751 mmHg 78%
    14:00 +1°C° 0 mm 3 mps 751 mmHg 76%
    15:00 +1°C° 0 mm 3 mps 751 mmHg 75%
    16:00 0°C° 0 mm 3 mps 751 mmHg 78%
    17:00 -1°C° 0 mm 3 mps 751 mmHg 81%
    18:00 -1°C° 0 mm 3 mps 751 mmHg 84%
    19:00 -2°C° 0 mm 3 mps 751 mmHg 86%
    20:00 -2°C° 0 mm 3 mps 751 mmHg 88%
    21:00 -2°C° 0 mm 3 mps 751 mmHg 90%
    22:00 -2°C° 0 mm 3 mps 752 mmHg 91%
    23:00 -2°C° 0 mm 3 mps 752 mmHg 92%

    29 March, Friday

    Time Temperature Precipitation Wind Pressure Humidity
    00:00 -2°C° 0 mm 3 mps 752 mmHg 93%
    01:00 -3°C° 0 mm 4 mps 752 mmHg 92%
    02:00 -3°C° 0 mm 4 mps 752 mmHg 91%
    03:00 -3°C° 0 mm 4 mps 752 mmHg 90%
    04:00 -3°C° 0 mm 4 mps 753 mmHg 89%
    05:00 -4°C° 0 mm 4 mps 753 mmHg 88%
    06:00 -4°C° 0 mm 4 mps 753 mmHg 87%
    07:00 -4°C° 0 mm 4 mps 753 mmHg 83%
    08:00 -2°C° 0 mm 3 mps 753 mmHg 79%
    09:00 -2°C° 0 mm 3 mps 754 mmHg 75%
    10:00 -1°C° 0 mm 3 mps 753 mmHg 74%
    11:00 -2°C° 0 mm 4 mps 753 mmHg 72%
    12:00 -1°C° 0 mm 4 mps 753 mmHg 71%
    13:00 -1°C° 0 mm 4 mps 753 mmHg 70%
    14:00 -1°C° 0 mm 5 mps 752 mmHg 70%
    15:00 -1°C° 0 mm 5 mps 752 mmHg 69%
    16:00 -1°C° 0 mm 5 mps 751 mmHg 75%
    17:00 -2°C° 0 mm 5 mps 751 mmHg 80%
    18:00 -4°C° 0 mm 5 mps 750 mmHg 85%
    19:00 -4°C° 0.1 mm 5 mps 750 mmHg 87%
    20:00 -4°C° 0.1 mm 5 mps 750 mmHg 89%
    21:00 -3°C° 0.1 mm 4 mps 750 mmHg 91%
    22:00 -3°C° 0.1 mm 4 mps 750 mmHg 91%
    23:00 -3°C° 0.1 mm 4 mps 750 mmHg 92%

    30 March, Saturday

    Time Temperature Precipitation Wind Pressure Humidity
    00:00 -2°C° 0.1 mm 3 mps 750 mmHg 92%
    01:00 -2°C° 0 mm 3 mps 750 mmHg 93%
    02:00 -4°C° 0 mm 3 mps 750 mmHg 93%
    03:00 -3°C° 0 mm 2 mps 751 mmHg 94%
    04:00 -3°C° 0 mm 2 mps 751 mmHg 93%
    05:00 -3°C° 0 mm 2 mps 751 mmHg 93%
    06:00 -2°C° 0 mm 2 mps 752 mmHg 93%
    07:00 -2°C° 0 mm 2 mps 752 mmHg 91%
    08:00 -1°C° 0 mm 2 mps 753 mmHg 89%
    09:00 -1°C° 0 mm 3 mps 753 mmHg 88%
    10:00 +1°C° 0 mm 2 mps 753 mmHg 87%
    11:00 +1°C° 0 mm 2 mps 754 mmHg 86%
    12:00 +1°C° 0 mm 2 mps 754 mmHg 85%
    13:00 +2°C° 0 mm 2 mps 754 mmHg 84%
    14:00 +2°C° 0 mm 2 mps 754 mmHg 84%
    15:00 +2°C° 0 mm 2 mps 754 mmHg 84%
    16:00 +1°C° 0 mm 2 mps 754 mmHg 86%
    17:00 -1°C° 0 mm 2 mps 754 mmHg 88%
    18:00 +1°C° 0 mm 1 mps 755 mmHg 90%
    19:00 -2°C° 0 mm 2 mps 755 mmHg 91%
    20:00 -2°C° 0 mm 2 mps 755 mmHg 92%
    21:00 -2°C° 0 mm 2 mps 755 mmHg 93%
    22:00 -3°C° 0 mm 2 mps 755 mmHg 93%
    23:00 -3°C° 0 mm 2 mps 755 mmHg 93%
    Show more